www.pogodaiklimat.ru

Погода и климат >> Архив погоды >> Россия >> Крым >> Феодосия


АРХИВ ПОГОДЫ в Феодосии

Время (UTC), дата Ветер
(напр.,м/с)
 
Видим.   Явления Облачность Т
(С)
Тd
(С)
f
(%)
Тe
(С)
Тes
(С)
Комфортность P
(гПа)
Po
(гПа)
Тmin
(С)
Tmax
(С)
R
(мм)
R24
(мм)
S
(см)
21 16.06 Ю 1 10 км ясно +16.0 +9.6 66 +17 +17 прохладно 1016.4 1013.3
00 17.06 ЮЗ 1 10 км ясно +14.7 +9.3 70 +15 +15 прохладно 1015.1 1012.0
03 17.06 Ю 1 10 км ясно +14.1 +9.7 75 +14 +15 холодно 1015.1 1012.0 +13.8
06 17.06 ЮВ 3 10 км ясно +22.0 +15.6 67 +26 +34 душно 1015.0 1012.0 +13.8
09 17.06 Ю 4 10 км 7 баллов +23.4 +14.9 59 +27 +31 душно 1013.7 1010.7
12 17.06 Ю 3 10 км 7 баллов +23.2 +15.0 60 +27 +31 душно 1013.7 1010.7
15 17.06 Ю 3 10 км 10 баллов +21.0 +12.7 59 +24 +24 комфорт 1012.3 1009.3
18 17.06 Ю 2 10 км 6 баллов +19.0 +13.4 70 +21 +21 комфорт 1012.4 1009.3 +24.4
21 17.06 ЮЗ 1 10 км ясно +17.4 +13.1 76 +18 +18 по сезону 1012.4 1009.3
00 18.06 Ю 1 10 км 4 балла +14.6 +13.3 92 +15 +15 прохладно 1011.1 1008.0
03 18.06 З 1 10 км 9 баллов +15.0 +13.7 92 +15 +16 холодно 1011.1 1008.0 +14.3
06 18.06 В 1 10 км 9 баллов +20.6 +14.3 67 +24 +25 комфорт 1011.0 1008.0 +14.3
09 18.06 В 1 10 км 10 баллов +23.8 +14.2 55 +26 +26 жарко 1011.0 1008.0
12 18.06 СВ 1 10 км 9 баллов +23.9 +12.5 49 +26 +27 жарко 1011.0 1008.0
15 18.06 Ю 1 10 км слабый ливневой дождь 10 баллов +18.0 +16.0 88 +19 +19 прохладно 1012.4 1009.3 6
18 18.06 З 2 10 км 5 баллов +18.4 +17.1 92 +20 +20 по сезону 1012.4 1009.3 +25.0 6
21 18.06 З 2 10 км 10 баллов +18.8 +15.7 82 +20 +20 по сезону 1012.4 1009.3
00 19.06 З 3 10 км 7 баллов +18.2 +16.5 90 +19 +19 тепло 1011.1 1008.0
03 19.06 З 2 4000 м дымка 9 баллов +18.6 +17.6 94 +20 +20 по сезону 1011.0 1008.0 +18.0 0.1
06 19.06 СВ 3 4000 м гроза, ливневой дождь 10 баллов +18.6 +17.6 94 +20 +20 прохладно 1012.4 1009.3 +18.2 5
09 19.06 В 1 10 км 9 баллов +20.6 +18.5 88 +26 +28 душно 1012.3 1009.3
12 19.06 ЮЗ 2 10 км гроза, ливневой дождь 10 баллов +19.2 +16.4 84 +21 +21 комфорт 1012.3 1009.3
15 19.06 СЗ 1 20 км 7 баллов +21.6 +15.2 67 +25 +26 комфорт 1011.0 1008.0 15
18 19.06 З 2 10 км 7 баллов +20.4 +16.8 80 +24 +24 комфорт 1012.3 1009.3 +23.1 10
21 19.06 З 2 10 км 6 баллов +19.1 +17.4 90 +21 +21 комфорт 1011.0 1008.0
00 20.06 З 4 10 км ясно +19.0 +13.4 70 +20 +20 тепло 1011.1 1008.0
03 20.06 З 3 10 км 4 балла +18.9 +12.2 65 +20 +20 по сезону 1009.7 1006.7 +18.6
06 20.06 СЗ 3 10 км 6 баллов +22.6 +15.2 63 +26 +30 жарко 1009.7 1006.7 +18.6
09 20.06 С 3 10 км 7 баллов +27.1 +12.3 40 +29 +33 жарко 1011.0 1008.0
12 20.06 В 2 10 км 7 баллов +26.0 +15.1 51 +29 +33 душно 1011.0 1008.0
15 20.06 ЮВ 2 10 км 6 баллов +25.6 +12.4 44 +27 +29 жарко 1009.7 1006.7
18 20.06 ЮВ 1 10 км 7 баллов +22.5 +14.8 62 +26 +26 жарко 1011.0 1008.0 +27.7
21 20.06 З 1 10 км 6 баллов +20.4 +17.2 82 +25 +25 комфорт 1011.0 1008.0
00 21.06 З 1 10 км ясно +18.5 +16.8 90 +20 +20 тепло 1011.1 1008.0
03 21.06 штиль 0 10 км ясно +17.6 +16.3 92 +18 +18 прохладно 1009.8 1006.7 +17.6
06 21.06 ЮВ 1 10 км ясно +27.0 +15.7 50 +30 +41 душно 1009.7 1006.7 +17.6
09 21.06 Ю 3 10 км 7 баллов +28.0 +16.3 49 +31 +36 душно 1009.7 1006.7
12 21.06 Ю 5
{11}
10 км 2 балла +26.6 +20.4 69 +33 +39 очень
душно
1009.7 1006.7
15 21.06 Ю 2
{11}
10 км в посл. час ливневой дождь 9 баллов +24.6 +16.6 61 +28 +28 душно 1009.7 1006.7 0.3
18 21.06 Ю 2 10 км 7 баллов +24.8 +16.0 58 +28 +28 жарко 1009.7 1006.7 +28.8 0.3
21 21.06 З 2 10 км ясно +23.4 +14.7 58 +27 +27 душно 1009.7 1006.7
00 22.06 З 2 10 км 4 балла +23.2 +13.6 55 +27 +27 душно 1009.7 1006.7
03 22.06 З 3 10 км 2 балла +22.0 +13.6 59 +25 +25 комфорт 1009.7 1006.7 +22.0
06 22.06 СЗ 1 10 км в посл. час ливневой дождь 9 баллов +23.3 +18.0 72 +29 +30 душно 1012.3 1009.3 +21.9 0.0
09 22.06 З 1 10 км в посл. час ливневой дождь 10 баллов +25.2 +18.6 67 +30 +30 душно 1013.7 1010.7
12 22.06 В 1 10 км 7 баллов +24.8 +17.8 65 +29 +34 душно 1013.7 1010.7
15 22.06 Ю 2 10 км 7 баллов +24.5 +16.2 60 +28 +29 душно 1013.7 1010.7 0.0
18 22.06 ЮЗ 1 10 км слабый ливневой дождь, в посл. час гроза 6 баллов +22.2 +16.9 72 +27 +27 душно 1013.7 1010.7 +25.7 0.1
21 22.06 З 1 10 км ясно +19.8 +17.0 84 +23 +23 комфорт 1015.0 1012.0
00 23.06 штиль 0 10 км ясно +18.8 +16.2 85 +20 +20 тепло 1013.8 1010.7
03 23.06 З 1 10 км 7 баллов +19.7 +11.5 59 +22 +22 комфорт 1013.8 1010.7 +17.5 0.1
06 23.06 ЮЗ 2 10 км 7 баллов +24.4 +15.0 56 +27 +30 жарко 1015.0 1012.0 +17.5
09 23.06 Ю 3 20 км 7 баллов +25.8 +13.6 47 +28 +33 жарко 1015.0 1012.0
12 23.06 Ю 4
{11}
20 км 7 баллов +26.5 +14.3 47 +29 +32 жарко 1013.7 1010.7
15 23.06 Ю 3
{11}
20 км 7 баллов +25.7 +16.5 57 +29 +30 душно 1012.3 1009.3
18 23.06 ЮЗ 4 10 км 4 балла +22.3 +19.7 85 +28 +28 душно 1012.3 1009.3 +28.0

 

Местоположение метеостанции Феодосия (Крым, Россия): широта 45.03 долгота 35.38 высота над уровнем моря 26 м.

В архиве по умолчанию представлена погода в Феодосии за последнюю неделю. Архивные данные за месяц целиком и за предыдущие месяцы, начиная с января 2011 года, Вы можете получить, выбрав интересующий диапазон дат из раскрывающегося списка и нажав кнопку "Ввод!".

Внимание! Время в таблицах - всемирное. Для получения местного времени необходимо прибавить поправку, которая в Феодосии равна 3 ч.

Смотрите также архив погоды в соседних городах и на ближайших метеорологических станциях:

Погода на Мысовом (Крым, Россия) (58 км)
Погода в Белогорске (Крым, Россия) (61 км)
Погода в Нижнегорском (Крым, Россия) (69 км)
Погода в Стрелковом (Херсонская область, Украина) (87 км)
Погода в Алуште (Крым, Россия) (87 км)
Погода в Керчи (Крым, Россия) (91 км)
Погода в Никитском саду (Крым, Россия) (106 км)
Погода в Тамани (Краснодарский край, Россия) (107 км)
Погода в Джанкое (Крым, Россия) (108 км)
Погода в Клепинино (Крым, Россия) (109 км)

Пояснения к столбцам:

Ветер - указаны скорость ветра в м/с - средняя за 10 мин, порывы в срок и между сроками (в фигурных скобках) и направление, откуда дует ветер: С - северный, СВ - северо-восточный, В - восточный, ЮВ - юго-восточный, Ю - южный, ЮЗ - юго-западный, З - западный, СЗ - северо-западный.
Видимость - горизонтальная дальность видимости в метрах или километрах. При видимости от 1 до 10 км при отсутствии осадков обычно наблюдается дымка, при ухудшении видимости до 1 км и менее - туман. В сухую погоду видимость может ухудшаться дымом, пылью или мглою.
Явления - указаны атмосферные явления, наблюдавшиеся в срок или в последний час перед сроком; фигурными скобками обозначены явления, наблюдавшиеся между сроками (за 1-3 часа до срока); квадратными скобками обозначены град или гололедные отложения с указанием их диаметра в мм.
Облачность - указаны через наклонную черту общая и нижняя облачность в баллах и высота нижней границы облаков в метрах; квадратными скобками обозначены формы облаков: Ci - перистые, Cs - перисто-слоистые, Cc - перисто-кучевые, Ac - высококучевые, As - высокослоистые, Sc - слоисто-кучевые, Ns - слоисто-дождевые, Cu - кучевые, Cb - кучево-дождевые. Подробнее классификацию облаков см. в Атласе облаков (PDF).
T - Температура воздуха - температура, измеренная на высоте 2 м над землей.
Td - Температура точки росы - температура, при понижении до которой содержащийся в воздухе водяной пар достигнет насыщения.
f - Относительная влажность воздуха - влажноcть воздуха, измеренная на высоте 2 м над землей.
Te - Эффективная температура - температура, которую ощущает одетый по сезону человек в тени. Характеристика душности погоды. При расчете учитывается влияние влажности воздуха и скорости ветра на теплоощущения человека.
Tes - Эффективная температура на солнце - температура, которую ощущает человек, с поправкой на солнечный нагрев. Характеристика знойности погоды. Зависит от высоты солнца над горизонтом, облачности и скорости ветра. Ночью, в пасмурную погоду, а также при ветре 12 м/с и более поправка равна нулю.
P - Атмосферное давление - приведенное к уровню моря атмосферное давление.
Po - Атмосферное давление - измеренное на уровне метеостанции атмосферное давление.
Tmin - Минимальная температура - минимум температуры воздуха на высоте 2 м над землей.
Tmax - Максимальная температура - максимум температуры воздуха на высоте 2 м над землей.
R - Количество осадков - Количество выпавших осадков за период времени, мм. При наведении курсора мыши на число - период времени, за который выпало указанное количество осадков.
R24 - Количество осадков - Количество выпавших осадков за 24 часа, мм.
S - Снежный покров - Высота снежного покрова, см. При наведении курсора мыши на число - состояние снежного покрова и степень покрытия местности в баллах.